Precipitable_Water
1.20 1.23 1.24 1.37 1.55 1.58 1.58 1.58 1.58 1.58 1.54 1.55 1.54 1.51 1.49 1.49 1.36 1.19 1.06 1.07 1.16 1.16 1.20 1.28 1.27 1.28 1.22 1.12 1.10 1.15 1.17 1.16 1.18 1.19 1.17 1.17 1.17 1.20 1.24 1.24 1.19 1.18 1.18
1.23 1.26 1.29 1.44 1.59 1.59 1.54 1.50 1.52 1.54 1.62 1.63 1.57 1.50 1.53 1.50 1.40 1.25 1.13 1.12 1.18 1.16 1.27 1.18 1.21 1.21 1.15 1.15 1.14 1.16 1.15 1.14 1.17 1.18 1.19 1.17 1.17 1.16 1.17 1.17 1.15 1.14 1.12
1.17 1.34 1.34 1.46 1.61 1.62 1.55 1.52 1.50 1.45 1.53 1.67 1.60 1.57 1.56 1.50 1.48 1.33 1.20 1.18 1.17 1.22 1.14 1.09 1.11 1.12 1.12 1.06 1.09 1.09 1.11 1.10 1.09 1.12 1.10 1.11 1.12 1.13 1.13 1.09 1.09 1.06 1.01
1.23 1.33 1.37 1.45 1.63 1.62 1.57 1.52 1.47 1.59 1.54 1.65 1.60 1.61 1.55 1.57 1.61 1.48 1.27 1.19 1.19 1.17 1.08 0.99 1.04 1.07 1.03 1.01 1.01 0.99 1.00 0.97 0.98 1.01 1.02 1.05 1.09 1.08 1.04 0.99 0.98 0.94 0.90
1.27 1.35 1.43 1.45 1.55 1.56 1.56 1.52 1.59 1.56 1.65 1.63 1.64 1.62 1.63 1.69 1.57 1.45 1.33 1.18 1.13 1.15 1.02 1.00 1.01 0.98 0.95 0.96 0.93 0.91 0.89 0.92 1.02 1.03 0.98 0.98 0.98 0.98 0.92 0.89 0.83 0.79 0.75
1.31 1.35 1.45 1.48 1.50 1.55 1.60 1.62 1.64 1.65 1.65 1.67 1.71 1.64 1.65 1.59 1.51 1.40 1.17 1.18 1.18 1.09 1.04 1.08 0.98 0.93 0.92 0.91 0.91 0.86 0.90 0.95 0.97 0.96 0.90 0.86 0.87 0.86 0.80 0.75 0.72 0.70 0.70
1.32 1.44 1.47 1.48 1.48 1.62 1.67 1.75 1.75 1.72 1.72 1.66 1.66 1.62 1.58 1.54 1.40 1.29 1.22 1.14 1.09 1.00 1.06 1.02 0.96 0.92 0.90 0.89 0.89 0.91 0.90 0.92 0.89 0.84 0.84 0.83 0.81 0.79 0.77 0.74 0.71 0.69 0.67
1.23 1.45 1.62 1.60 1.57 1.54 1.57 1.76 1.72 1.79 1.75 1.70 1.60 1.58 1.54 1.48 1.33 1.29 1.20 1.13 1.09 1.05 1.00 1.00 0.94 0.94 0.94 0.92 0.88 0.85 0.85 0.89 0.90 0.87 0.83 0.80 0.80 0.77 0.74 0.70 0.69 0.68 0.65
1.21 1.33 1.50 1.70 1.67 1.58 1.55 1.67 1.62 1.82 1.66 1.61 1.59 1.54 1.43 1.46 1.32 1.33 1.21 1.21 1.20 1.13 1.03 0.96 0.94 0.95 0.93 0.89 0.81 0.84 0.87 0.92 0.88 0.84 0.80 0.77 0.78 0.75 0.74 0.70 0.70 0.68 0.67
1.20 1.23 1.38 1.57 1.68 1.62 1.53 1.62 1.70 1.86 1.76 1.65 1.60 1.53 1.48 1.34 1.28 1.27 1.27 1.25 1.20 1.14 1.01 0.94 0.90 0.93 0.88 0.85 0.78 0.80 0.86 0.88 0.87 0.84 0.83 0.80 0.81 0.77 0.73 0.70 0.70 0.70 0.70
1.16 1.34 1.40 1.50 1.58 1.63 1.62 1.63 1.67 1.60 1.71 1.66 1.63 1.50 1.42 1.32 1.29 1.25 1.30 1.25 1.18 1.09 0.99 0.91 0.89 0.83 0.79 0.77 0.73 0.80 0.89 0.91 0.92 0.89 0.84 0.85 0.84 0.81 0.76 0.74 0.72 0.71 0.72
1.23 1.40 1.38 1.46 1.51 1.54 1.61 1.58 1.67 1.58 1.69 1.60 1.55 1.47 1.51 1.38 1.37 1.33 1.29 1.24 1.21 1.07 0.99 0.91 0.84 0.75 0.77 0.73 0.79 0.88 0.93 0.94 0.93 0.87 0.84 0.86 0.85 0.84 0.80 0.75 0.72 0.71 0.70
1.32 1.39 1.46 1.51 1.49 1.44 1.45 1.54 1.65 1.62 1.56 1.56 1.56 1.37 1.39 1.47 1.31 1.27 1.24 1.31 1.20 1.08 0.97 0.89 0.80 0.82 0.81 0.78 0.83 0.92 0.91 0.94 0.91 0.88 0.86 0.88 0.87 0.87 0.81 0.75 0.72 0.71 0.70
1.22 1.30 1.44 1.54 1.48 1.42 1.42 1.50 1.53 1.59 1.56 1.55 1.53 1.42 1.44 1.39 1.29 1.26 1.23 1.30 1.16 1.07 0.96 0.86 0.89 0.98 0.93 0.88 0.93 0.94 0.95 0.95 0.94 0.92 0.94 0.95 0.91 0.87 0.85 0.81 0.76 0.75 0.74
1.16 1.28 1.38 1.56 1.53 1.43 1.37 1.39 1.44 1.51 1.54 1.55 1.45 1.45 1.46 1.35 1.20 1.25 1.26 1.26 1.15 1.11 1.00 0.89 1.02 0.99 0.94 0.94 0.95 0.96 0.97 1.00 0.97 0.94 0.92 0.92 0.94 0.93 0.92 0.89 0.84 0.81 0.81
1.13 1.23 1.35 1.42 1.49 1.49 1.44 1.44 1.45 1.52 1.52 1.48 1.47 1.46 1.45 1.33 1.24 1.25 1.29 1.22 1.11 1.12 1.07 0.99 1.05 0.96 0.90 0.91 0.92 0.96 0.97 0.98 1.02 0.99 0.96 0.96 0.97 0.97 0.96 0.92 0.89 0.86 0.83
1.02 1.13 1.25 1.30 1.44 1.44 1.47 1.48 1.46 1.55 1.55 1.47 1.44 1.40 1.39 1.17 1.25 1.28 1.25 1.19 1.10 1.16 1.10 1.07 1.03 0.96 0.85 0.88 0.88 0.91 0.93 0.96 0.96 1.03 0.99 0.98 0.98 0.98 0.98 0.99 0.97 0.92 0.90
0.94 1.02 1.22 1.34 1.38 1.45 1.45 1.45 1.49 1.52 1.55 1.50 1.44 1.42 1.25 1.18 1.26 1.23 1.16 1.10 1.10 1.12 1.07 1.02 0.96 0.91 0.86 0.83 0.85 0.85 0.87 0.91 0.93 0.95 1.00 1.02 0.97 0.98 1.00 1.02 1.01 0.98 0.92
0.89 1.01 1.23 1.36 1.30 1.36 1.43 1.45 1.49 1.49 1.50 1.46 1.45 1.28 1.18 1.27 1.25 1.14 1.01 1.02 1.01 1.01 0.99 0.98 0.97 0.95 0.89 0.86 0.84 0.84 0.83 0.84 0.85 0.86 0.88 0.91 0.96 0.97 0.99 0.99 1.00 0.97 0.99
0.86 0.99 1.17 1.31 1.32 1.38 1.38 1.42 1.45 1.45 1.45 1.45 1.32 1.24 1.21 1.23 1.17 1.05 1.00 1.05 0.98 0.93 0.94 0.96 0.95 0.96 0.91 0.85 0.81 0.79 0.78 0.77 0.74 0.75 0.78 0.83 0.88 0.90 1.01 1.08 1.03 0.99 1.02
0.82 0.89 1.04 1.10 1.27 1.33 1.31 1.30 1.33 1.29 1.34 1.32 1.26 1.17 1.18 1.16 1.13 1.03 1.06 1.08 1.02 0.99 0.98 0.99 0.95 0.91 0.89 0.89 0.78 0.73 0.74 0.74 0.73 0.73 0.74 0.75 0.82 0.94 0.99 0.98 1.08 1.06 1.04
0.73 0.82 0.94 1.03 1.15 1.30 1.36 1.32 1.34 1.32 1.34 1.29 1.26 1.26 1.19 1.20 1.15 1.08 1.08 1.07 1.09 1.06 1.09 1.09 1.03 0.98 0.93 0.89 0.75 0.72 0.66 0.69 0.70 0.72 0.75 0.76 0.86 0.93 0.94 0.96 0.99 1.00 1.02
0.68 0.74 0.83 0.96 1.10 1.22 1.33 1.35 1.34 1.34 1.32 1.25 1.21 1.20 1.26 1.28 1.21 1.14 1.14 1.18 1.11 1.14 1.16 1.16 1.13 1.06 0.94 0.95 0.91 0.85 0.73 0.67 0.78 0.80 0.80 0.82 0.86 0.92 0.93 0.92 0.98 0.99 0.98
0.65 0.73 0.80 0.89 1.01 1.13 1.26 1.31 1.26 1.21 1.17 1.20 1.20 1.18 1.18 1.26 1.22 1.16 1.18 1.21 1.18 1.14 1.14 1.17 1.16 1.10 1.05 0.96 0.96 0.95 0.94 0.93 0.84 0.83 0.88 0.89 0.92 0.92 0.96 0.95 0.93 0.97 1.04
0.69 0.69 0.74 0.80 0.92 1.04 1.15 1.19 1.22 1.20 1.21 1.21 1.20 1.16 1.18 1.22 1.22 1.23 1.21 1.20 1.17 1.14 1.12 1.13 1.13 1.11 1.07 0.98 0.99 0.95 0.86 0.83 0.85 0.76 0.73 0.87 0.96 0.98 0.99 0.99 1.03 0.99 1.04
0.72 0.70 0.69 0.74 0.79 0.93 1.02 1.06 1.08 1.10 1.14 1.14 1.13 1.14 1.19 1.21 1.24 1.27 1.25 1.17 1.14 1.15 1.15 1.13 1.15 1.12 1.08 1.05 1.02 1.01 0.98 0.91 0.85 0.83 0.80 0.81 0.85 0.95 0.98 1.02 1.01 1.07 1.14
Wind_Speed
15 14 19 20 22 23 22 22 21 21 20 19 18 17 16 16 14 14 15 15 15 14 13 12 11 10 9 9 9 8 8 8 7 6 6 6 5 5 5 5 5 5 5
14 14 17 19 22 23 23 23 22 22 23 22 21 19 18 18 16 15 16 16 16 15 13 13 11 10 10 9 9 9 8 8 7 6 6 6 5 5 5 6 6 6 6
14 13 16 19 20 23 23 23 23 23 22 22 21 21 20 19 18 17 17 17 17 15 14 13 12 11 9 9 9 9 8 7 7 6 5 5 5 6 6 6 6 6 7
15 15 17 18 19 22 23 23 24 25 22 24 22 22 22 21 20 18 18 18 18 16 14 14 13 11 11 10 9 9 8 8 7 7 6 5 6 6 6 6 6 7 7
15 17 18 20 21 22 24 24 27 27 25 23 24 24 23 22 21 20 19 19 18 16 16 15 12 12 11 10 10 9 9 7 6 5 6 6 6 6 7 6 6 6 6
17 18 19 22 24 25 25 27 29 30 28 25 24 23 26 24 22 21 19 20 18 17 15 14 13 12 11 11 10 10 8 7 6 6 6 7 6 7 7 6 6 6 6
19 20 21 23 26 26 27 29 32 31 30 29 24 23 25 25 24 22 20 21 18 18 16 14 13 12 12 11 10 10 8 6 7 7 7 7 7 7 7 6 6 7 6
18 20 22 23 27 28 29 28 28 29 29 29 27 25 22 27 25 23 22 21 20 18 16 14 14 13 12 11 11 9 8 7 7 7 8 8 8 8 7 7 7 7 6
18 19 21 23 25 28 29 27 25 30 29 29 27 26 23 29 26 24 22 22 21 18 16 15 14 13 13 12 11 10 8 6 8 8 8 8 9 8 7 7 6 6 6
16 18 21 22 23 26 27 27 23 31 28 26 27 27 24 25 26 25 24 22 21 19 16 15 14 13 13 12 11 10 9 8 8 8 8 9 9 8 7 6 6 6 5
16 16 18 19 21 23 25 26 26 25 25 23 24 25 26 25 26 27 25 24 22 19 18 16 15 14 13 12 12 12 9 8 8 8 9 9 9 7 7 6 6 5 5
12 12 15 17 21 22 23 25 25 23 23 23 24 24 25 25 28 28 27 26 23 20 18 17 15 14 13 12 12 10 8 9 8 8 9 9 8 7 7 6 6 5 4
9 9 13 16 20 20 26 23 23 26 27 24 26 24 26 25 28 29 29 27 23 21 19 17 16 14 13 13 12 10 10 9 9 9 10 9 9 8 8 7 6 5 4
8 8 8 12 17 18 21 27 27 25 26 27 26 25 25 29 29 30 30 28 25 22 20 18 16 13 13 12 11 11 11 10 10 10 11 10 10 9 8 7 7 6 6
8 7 8 11 14 16 17 21 26 31 28 28 26 27 26 28 30 30 31 27 26 23 21 19 16 14 13 13 12 12 12 11 11 11 11 12 11 10 9 8 7 7 7
7 7 8 11 15 17 18 19 22 28 30 30 29 30 30 30 30 31 30 28 26 24 22 20 17 14 14 14 14 13 12 12 12 12 12 12 12 11 11 10 9 9 9
7 7 8 10 15 17 17 20 21 29 31 31 31 32 31 33 33 32 30 28 27 24 23 20 17 15 14 14 14 14 13 13 13 13 13 13 13 13 13 12 12 11 11
7 8 10 12 15 15 16 17 21 30 31 32 32 31 33 33 32 33 30 29 27 25 23 20 17 15 15 15 15 15 15 15 15 15 15 15 15 15 16 15 15 14 14
8 8 6 9 13 13 12 11 17 28 32 33 30 32 34 33 32 32 30 29 26 25 22 20 18 17 16 16 16 17 17 17 17 17 17 17 17 17 17 17 17 17 17
7 6 4 8 12 11 10 9 16 25 31 30 28 31 34 30 30 30 28 29 27 25 23 21 20 18 17 17 17 18 18 18 19 19 19 19 19 19 19 20 19 20 20
7 6 6 6 9 12 11 11 16 25 29 28 28 31 31 30 29 29 29 29 28 25 23 21 20 18 18 18 18 18 19 20 21 20 21 20 20 19 19 20 20 20 21
7 6 6 7 8 10 12 14 16 18 23 28 29 30 31 28 27 29 28 28 27 25 23 22 21 19 19 19 18 19 19 21 22 23 22 21 20 20 20 20 21 22 22
7 6 6 8 9 10 13 15 16 18 21 23 27 28 30 30 28 28 27 27 27 26 24 23 22 21 20 20 20 18 17 19 19 21 21 22 22 22 22 22 23 23 24
8 6 6 7 9 10 12 15 18 18 19 23 24 28 30 29 29 30 28 27 27 27 25 25 24 23 21 21 19 21 20 18 15 14 19 21 22 23 23 24 26 27 28
9 8 7 7 8 11 12 14 16 18 19 23 23 26 29 29 31 30 30 29 28 28 27 26 25 24 23 22 20 19 20 22 22 22 22 21 23 25 26 28 29 29 30
10 10 9 9 9 10 12 13 16 16 17 20 24 25 29 29 29 31 30 29 29 28 27 27 25 25 23 24 23 23 22 21 21 23 24 26 27 27 28 30 32 34 37
Wind_Direction
274 260 231 229 223 220 218 217 218 216 216 213 212 209 205 199 196 192 189 185 180 176 171 168 164 160 157 154 150 146 143 141 137 132 126 121 116 110 105 101 99 95 91
270 253 232 228 222 220 217 218 221 220 218 216 215 212 205 202 198 192 189 184 182 179 179 175 170 165 159 154 152 150 146 142 137 130 125 121 115 113 103 101 99 97 94
261 250 232 225 222 218 218 219 218 213 211 210 209 204 202 199 194 192 187 184 182 182 179 177 175 171 164 157 153 152 150 147 144 138 135 127 124 120 113 107 105 101 102
258 247 232 225 220 215 216 219 216 210 208 204 205 201 200 198 195 190 187 186 185 182 181 178 175 173 165 164 162 159 155 148 141 130 141 138 132 124 121 117 114 110 104
260 246 234 225 222 218 220 220 216 210 207 203 202 198 197 191 191 190 187 185 186 186 180 177 174 170 169 166 161 157 154 155 161 156 143 143 137 130 127 125 118 111 108
262 247 239 230 226 225 224 221 215 209 205 201 196 197 193 193 191 189 189 188 184 183 178 174 172 172 170 169 167 162 159 157 153 150 149 143 139 135 131 127 123 118 113
260 250 242 235 229 228 226 219 211 205 202 200 198 196 196 195 196 194 191 188 185 180 176 173 172 172 170 168 167 165 163 162 159 153 151 149 144 141 136 131 126 120 115
264 253 244 238 232 230 230 230 219 199 198 198 199 197 194 195 194 191 191 184 182 178 175 175 174 172 170 168 167 167 165 159 159 158 157 154 149 144 137 130 126 120 116
268 254 248 243 236 232 231 230 225 196 196 196 198 199 196 195 189 188 187 182 180 178 176 176 174 171 170 170 168 165 164 163 159 157 157 157 152 148 144 139 132 126 123
267 260 250 244 236 231 227 225 235 188 188 191 198 200 194 188 189 190 187 185 184 180 179 176 172 172 171 171 170 168 160 154 154 157 158 159 158 156 152 147 141 135 129
271 262 247 239 231 228 225 222 218 213 190 192 192 197 196 192 192 191 190 187 184 182 179 176 174 174 173 172 171 166 171 171 168 170 168 166 165 165 164 159 154 148 141
268 260 244 236 224 224 223 221 219 209 194 199 198 196 195 195 194 193 191 188 185 182 180 178 176 176 176 175 176 184 194 185 180 177 176 176 177 175 178 175 171 168 165
275 269 248 230 220 232 219 212 215 208 210 204 196 197 202 200 195 192 192 189 186 184 182 180 179 183 184 185 189 200 188 191 190 189 188 191 192 192 192 192 190 193 197
279 277 250 221 222 217 209 222 216 212 207 207 205 203 203 199 198 196 192 190 188 188 187 186 188 194 195 195 203 197 199 199 201 201 202 203 199 200 201 203 207 214 220
281 272 252 218 211 211 213 214 216 216 215 209 213 210 201 194 193 191 190 189 190 191 193 194 198 200 204 206 203 202 205 207 203 204 204 204 206 208 212 213 220 229 236
289 271 251 230 220 219 218 219 221 219 215 211 207 200 199 199 193 191 191 192 193 196 197 198 202 206 210 205 204 205 209 208 210 211 212 215 219 222 224 227 236 246 252
292 276 255 235 219 218 223 229 234 218 210 206 204 201 203 198 197 196 195 194 197 199 198 201 207 209 208 208 209 211 214 215 218 221 224 224 230 232 234 238 244 253 258
291 288 272 235 220 224 230 240 233 209 204 200 195 201 196 194 194 193 196 198 199 200 202 205 209 212 213 215 217 220 223 226 228 231 234 236 238 240 243 247 252 254 264
286 292 268 220 216 219 227 239 213 197 195 193 199 197 196 195 197 197 201 200 200 201 204 208 214 218 222 223 225 227 231 234 235 239 240 242 244 245 249 253 254 258 262
285 280 253 228 212 213 217 211 190 187 188 192 198 196 192 194 196 203 203 203 205 206 209 214 217 223 227 228 230 234 237 240 242 244 245 247 247 250 253 254 255 261 263
273 268 250 220 215 215 207 193 179 190 195 197 193 194 198 203 209 205 206 205 205 209 211 215 220 226 232 233 236 239 243 245 246 247 247 247 248 250 256 255 257 262 265
261 258 239 223 220 210 201 190 187 186 189 195 199 204 202 201 201 201 204 205 209 212 215 220 224 230 236 236 239 242 247 248 248 248 246 247 248 251 257 258 261 263 267
249 245 235 222 215 206 204 198 198 193 196 200 202 199 199 202 205 204 207 209 213 216 220 224 229 236 239 239 241 245 247 251 248 244 245 245 249 254 257 259 262 265 270
241 234 223 218 209 206 200 203 201 201 200 202 201 202 205 209 210 210 213 216 219 222 227 229 234 239 243 239 241 242 247 252 249 246 246 249 253 255 258 261 265 269 271
230 225 222 215 210 208 207 205 203 206 209 207 208 209 212 213 214 217 220 223 225 227 231 234 236 238 241 239 241 243 247 250 251 253 256 259 258 261 262 264 266 271 273
227 221 220 216 213 208 207 205 205 207 209 210 213 216 215 217 220 222 225 227 227 229 232 234 236 238 240 239 243 246 249 252 254 255 259 262 264 265 265 269 271 274 274